[[{"header":{"parameterUnit":"m.s-1","parameterCategory":1,"la1":30.2991,"la2":30.254,"lo1":-89.0895,"lo2":-89.0444,"dy":0.0017,"dx":0.0017,"nx":28,"ny":28,"refTime":"2024-05-08T09:00:00:Z","depth":0,"parameterNumber":2,"parameterNumberName":"U-component_of_WINDS"},"data":[0,0,0,0,0,0,0,0,0,0,0,0,0,0,0,0,0,0,0,0,0,0,0,0,0,0,0,0,0,0,0,0,0,0,0,0,0,0,0,0,0,0,0,0,0,0,0,0,0,0,0,0,0,0,0,0,0,0,2.0302,2.0303,0,2.0438,2.044,2.0441,2.0454,2.0453,2.0451,2.045,2.0591,2.0596,2.0601,0,0,0,0,0,0,0,0,0,0,0,0,0,2.0052,2.0057,2.0301,2.0303,2.0305,2.0438,2.044,2.0442,2.0454,2.0453,2.0451,2.0449,2.0589,2.0595,2.0601,0,0,0,0,0,0,0,0,0,0,0,0,0,2.0172,2.0058,2.0301,2.0327,2.0331,2.0437,2.044,2.0442,2.0455,2.0453,2.045,2.0448,2.0587,2.0595,2.0602,2.0692,0,0,2.0625,2.0629,0,0,0,0,0,0,0,0,2.0165,2.0181,2.0322,2.0326,2.033,2.0427,2.0404,2.0526,2.0455,2.0408,2.045,2.0447,2.0538,2.055,2.058,2.0699,2.0705,2.0626,2.0631,2.0634,2.0636,0,0,0,0,0,0,0,2.0157,2.0175,2.0356,2.0324,2.0329,2.0332,2.0347,2.0427,2.0483,2.0412,2.0413,2.0429,2.054,2.0573,2.0583,2.0707,2.0626,2.0633,2.0637,2.064,2.0906,2.0909,0,0,0,0,0,0,2.0144,2.0168,2.0351,2.036,2.0241,2.0339,2.0355,2.0398,2.0483,2.0493,2.0431,2.0429,2.0561,2.0574,2.0588,2.0699,2.0634,2.0641,2.0646,2.0904,2.0907,2.091,0,0,0,0,0,0,2.0138,2.016,2.0346,2.0264,2.0288,2.0345,2.0393,2.0402,2.0434,2.0497,2.0507,2.0454,2.0559,2.0578,2.0666,2.0704,2.0645,2.0652,2.0901,2.0905,2.0908,2.0921,0,0,0,0,0,0,2.0131,2.0158,2.0192,2.0265,2.0293,2.0421,2.0396,2.0406,2.0447,2.0447,2.0521,2.0531,2.0559,2.0655,2.0674,2.0713,2.0657,2.0898,2.0903,2.0907,2.0917,2.0924,2.093,0,0,0,0,0,2.0122,2.0191,2.0194,2.0216,2.0337,2.0423,2.0439,2.0469,2.045,2.0486,2.0526,2.0529,2.0697,2.0664,2.0685,2.0728,2.0896,2.0901,2.0907,2.0914,2.0923,2.093,0,0,0,0,0,0,2.0121,2.0201,2.0205,2.03,2.0354,2.0425,2.047,2.0478,2.0539,2.0536,2.0571,2.0588,2.0675,2.0711,2.0672,2.0819,2.0794,2.0805,2.0793,2.0801,2.0808,2.0797,2.0664,0,0,0,0,0,2.0132,2.0195,2.0261,2.0338,2.0365,2.0413,2.0452,2.047,2.0529,2.0552,2.0599,2.0656,2.0721,2.0763,2.0827,2.0923,2.0939,2.0963,2.0969,2.0974,2.0982,2.1035,2.1046,2.0928,2.0928,2.0928,0,0,2.0155,2.0206,2.0244,2.0339,2.0384,2.0448,2.0433,2.0502,2.055,2.0563,2.0649,2.0685,2.0751,2.0843,2.0886,2.0875,2.1019,2.0982,2.0985,2.0991,2.1042,2.1053,2.1063,2.0932,2.0931,2.093,0,0,2.0229,2.0275,2.0343,2.0388,2.0456,2.0488,2.0504,2.0574,2.0598,2.0685,2.0696,2.0754,2.0867,2.0913,2.0951,2.1043,2.1048,2.1063,2.1097,2.1148,2.1157,2.1165,2.1197,2.1208,2.1071,2.1071,2.1071,0,2.0249,2.0346,2.0378,2.0446,2.0488,2.0502,2.0572,2.0614,2.07,2.0728,2.0715,2.0856,2.0901,2.1004,2.1026,2.1057,2.1076,2.1054,2.1153,2.1162,2.117,2.1201,2.1213,2.1072,2.1072,2.1072,2.1072,0,2.0367,2.0434,2.0481,2.0563,2.061,2.0678,2.072,2.0764,2.0779,2.0812,2.09,2.0955,2.103,2.1056,2.1072,2.1161,2.1152,2.1146,2.1121,2.1182,2.1211,2.1224,2.1074,2.1074,2.1073,2.1073,0,0,2.0443,2.0541,2.0558,2.0595,2.0671,2.0724,2.0793,2.0866,2.0902,2.0961,2.102,2.1115,2.1109,2.1153,2.1174,2.1218,2.1286,2.1206,2.1208,2.1218,2.1387,2.139,2.1403,2.129,2.1293,2.1295,2.1381,0,2.0525,2.0649,2.0679,2.0784,2.0847,2.0862,2.0922,2.0976,2.1008,2.1066,2.1103,2.1169,2.1157,2.1183,2.1228,2.1268,2.132,2.1263,2.1345,2.1347,2.1326,2.1419,2.1422,2.1501,2.1393,2.1395,2.1396,0,2.0637,2.0697,2.0808,2.0876,2.0903,2.0957,2.1026,2.1081,2.1142,2.1163,2.1211,2.1228,2.1301,2.1273,2.1374,2.1334,2.137,2.1395,2.1399,2.1406,2.1374,2.1428,2.1527,2.1538,2.1415,2.1413,2.1412,0,2.0679,2.0789,2.087,2.0901,2.0982,2.1019,2.1055,2.1114,2.1155,2.1216,2.1243,2.1312,2.1349,2.1402,2.1437,2.1414,2.1535,2.151,2.1553,2.1552,2.1577,2.1574,2.1682,2.1602,2.1602,2.1602,2.1601,0,2.0767,2.0834,2.089,2.0939,2.1015,2.105,2.1124,2.116,2.1212,2.1269,2.1287,2.134,2.1383,2.1442,2.147,2.1549,2.1566,2.1584,2.1591,2.1582,2.1579,2.1605,2.1599,2.1605,2.1604,2.1604,2.1603,0,2.0827,2.0867,2.0956,2.1025,2.1044,2.1097,2.1157,2.1205,2.1239,2.131,2.1329,2.1382,2.1452,2.1492,2.1581,2.16,2.1687,2.1691,2.1666,2.1668,2.1708,2.1703,2.1834,2.1853,2.1762,2.1763,2.1764,0,2.0879,2.0931,2.1006,2.1045,2.1081,2.1144,2.1187,2.1223,2.1267,2.134,2.138,2.1451,2.151,2.1621,2.1668,2.1736,2.1741,2.1782,2.1751,2.1741,2.174,2.1736,2.1741,2.1787,2.1788,2.1789,2.1789,0,2.0967,2.0984,2.1044,2.1112,2.1162,2.1217,2.1272,2.1303,2.1349,2.1397,2.1469,2.1515,2.1605,2.1675,2.1747,2.1784,2.1794,2.1799,2.1812,2.1803,2.1785,2.1794,2.1679,2.1795,2.1795,2.1794,2.1794,2.1794,2.1023,2.107,2.113,2.1197,2.1242,2.1293,2.1341,2.1381,2.1441,2.1517,2.1536,2.1611,2.1671,2.1768,2.1807,2.1866,2.1859,2.1878,2.1883,2.1887,2.1887,2.1777,2.188,2.188,2.1879,2.1879,2.1879,0,2.1111,2.115,2.1211,2.1287,2.134,2.1345,2.1406,2.1449,2.1515,2.157,2.1627,2.171,2.1778,2.183,2.19,2.1938,2.1944,2.1955,2.1951,2.196,2.1891,2.1871,2.1948,2.1948,2.1948,2.1948,2.1948,2.1948,2.1162,2.1241,2.1266,2.1367,2.1406,2.148,2.1514,2.1561,2.1605,2.1695,2.1752,2.1786,2.1839,2.1913,2.1976,2.199,2.2014,2.2024,2.2038,2.1972,2.1965,2.1957,2.1939,2.2029,2.2029,2.2101,2.2102,2.2103]},{"header":{"parameterUnit":"m.s-1","parameterCategory":1,"la1":30.2991,"la2":30.254,"lo1":-89.0895,"lo2":-89.0444,"dy":0.0017,"dx":0.0017,"nx":28,"ny":28,"refTime":"2024-05-08T09:00:00:Z","depth":0,"parameterNumber":3,"parameterNumberName":"V-component_of_WINDS"},"data":[0,0,0,0,0,0,0,0,0,0,0,0,0,0,0,0,0,0,0,0,0,0,0,0,0,0,0,0,0,0,0,0,0,0,0,0,0,0,0,0,0,0,0,0,0,0,0,0,0,0,0,0,0,0,0,0,0,0,3.377,3.3771,0,3.3908,3.3909,3.3911,3.3929,3.3928,3.3926,3.3925,3.406,3.4065,3.4069,0,0,0,0,0,0,0,0,0,0,0,0,0,3.3515,3.3519,3.377,3.3771,3.3773,3.3908,3.3909,3.3911,3.3929,3.3928,3.3926,3.3925,3.4058,3.4064,3.407,0,0,0,0,0,0,0,0,0,0,0,0,0,3.3636,3.3521,3.3769,3.3798,3.3802,3.3907,3.391,3.3912,3.393,3.3928,3.3926,3.3924,3.4056,3.4063,3.4071,3.4154,0,0,3.4093,3.4096,0,0,0,0,0,0,0,0,3.3629,3.3645,3.3792,3.3797,3.3801,3.3899,3.3869,3.3993,3.393,3.3881,3.3925,3.3923,3.4008,3.4019,3.4049,3.416,3.4166,3.4093,3.4098,3.4101,3.4103,0,0,0,0,0,0,0,3.3621,3.364,3.3824,3.3794,3.38,3.3802,3.3817,3.3893,3.3953,3.3885,3.3887,3.3903,3.401,3.4042,3.4052,3.4168,3.4093,3.4099,3.4104,3.4107,3.4354,3.4356,0,0,0,0,0,0,3.3608,3.3632,3.382,3.3828,3.3709,3.3808,3.3825,3.387,3.3953,3.3964,3.3905,3.3904,3.403,3.4044,3.4057,3.416,3.4101,3.4107,3.4111,3.4351,3.4354,3.4356,0,0,0,0,0,0,3.3602,3.3625,3.3814,3.3731,3.3755,3.3815,3.3865,3.3873,3.3906,3.3968,3.3978,3.3927,3.4029,3.4047,3.413,3.4164,3.4111,3.4117,3.4349,3.4352,3.4355,3.4366,0,0,0,0,0,0,3.3595,3.3622,3.3656,3.3732,3.376,3.3887,3.3867,3.3878,3.3919,3.3919,3.3991,3.4001,3.4029,3.4119,3.4137,3.4173,3.4123,3.4346,3.435,3.4354,3.4362,3.4369,3.4374,0,0,0,0,0,3.3586,3.3652,3.3658,3.368,3.3804,3.3889,3.3905,3.3938,3.3922,3.3955,3.3995,3.3999,3.4158,3.4127,3.4148,3.4187,3.4344,3.4349,3.4354,3.436,3.4368,3.4374,0,0,0,0,0,0,3.3577,3.3663,3.367,3.3763,3.3819,3.3892,3.3935,3.3945,3.4005,3.4002,3.4038,3.4054,3.4136,3.4169,3.4134,3.4271,3.4249,3.4258,3.4246,3.4254,3.426,3.425,3.4129,0,0,0,0,0,3.3587,3.3651,3.3721,3.3797,3.3825,3.3875,3.3914,3.3934,3.3992,3.4015,3.4061,3.4116,3.4178,3.4218,3.4279,3.4367,3.4382,3.4404,3.441,3.4414,3.4422,3.447,3.448,3.4373,3.4373,3.4373,0,0,3.3606,3.3661,3.3699,3.3797,3.3842,3.3906,3.3895,3.3963,3.401,3.4025,3.4107,3.4142,3.4205,3.4292,3.4332,3.4322,3.4455,3.4421,3.4424,3.4429,3.4477,3.4487,3.4496,3.4376,3.4376,3.4375,0,0,3.3674,3.3722,3.3791,3.3837,3.3907,3.394,3.3956,3.4028,3.4053,3.4136,3.4149,3.4204,3.431,3.4355,3.4391,3.4475,3.4481,3.4494,3.4525,3.4572,3.458,3.4588,3.4617,3.4627,3.4501,3.4501,3.4501,0,3.3689,3.3788,3.3824,3.3892,3.3934,3.3953,3.4021,3.4063,3.4148,3.4175,3.4164,3.4298,3.4342,3.4438,3.4459,3.4488,3.4506,3.4486,3.4576,3.4584,3.4592,3.462,3.4631,3.4502,3.4502,3.4502,3.4502,0,3.3802,3.387,3.3916,3.4001,3.4047,3.4115,3.4159,3.4202,3.4218,3.4252,3.4335,3.4388,3.446,3.4484,3.45,3.4583,3.4575,3.4569,3.4548,3.4603,3.463,3.4641,3.4504,3.4503,3.4503,3.4503,0,0,3.3868,3.3972,3.3988,3.4027,3.4105,3.4157,3.4225,3.4297,3.4332,3.439,3.4446,3.4536,3.4532,3.4573,3.4594,3.4635,3.4697,3.4624,3.4626,3.4635,3.479,3.4794,3.4806,3.4701,3.4703,3.4705,3.4785,0,3.3945,3.4069,3.4103,3.4207,3.4269,3.4288,3.4346,3.4399,3.4432,3.4488,3.4523,3.4586,3.4576,3.4601,3.4643,3.4681,3.4728,3.4675,3.4752,3.4754,3.4736,3.482,3.4824,3.4897,3.4796,3.4797,3.4799,0,3.4051,3.4114,3.4224,3.4294,3.4322,3.4374,3.4443,3.4497,3.4556,3.4577,3.4623,3.464,3.4709,3.4684,3.4778,3.4741,3.4774,3.4797,3.4801,3.4809,3.478,3.483,3.4921,3.4931,3.4816,3.4815,3.4813,0,3.4088,3.4199,3.428,3.4312,3.4396,3.4432,3.4468,3.4526,3.4567,3.4626,3.4653,3.4718,3.4753,3.4802,3.4835,3.4814,3.4926,3.4904,3.4944,3.4943,3.4966,3.4964,3.5063,3.4988,3.4988,3.4988,3.4988,0,3.417,3.4237,3.4298,3.4347,3.4422,3.4459,3.4531,3.4567,3.4619,3.4674,3.4693,3.4743,3.4784,3.484,3.4866,3.4939,3.4955,3.4972,3.4978,3.4971,3.4968,3.4993,3.4988,3.4991,3.499,3.499,3.4989,0,3.4224,3.4268,3.4357,3.4429,3.4449,3.4501,3.4562,3.4609,3.4642,3.4712,3.473,3.4782,3.4848,3.4886,3.4969,3.4987,3.5068,3.5072,3.5049,3.5051,3.5089,3.5084,3.5206,3.5224,3.5137,3.5138,3.5139,0,3.4274,3.4326,3.4404,3.4444,3.4481,3.4544,3.4587,3.4625,3.4668,3.4739,3.4778,3.4846,3.4902,3.5007,3.505,3.5114,3.5119,3.5157,3.5128,3.5119,3.5119,3.5115,3.512,3.5162,3.5162,3.5163,3.5164,0,3.4356,3.4376,3.4437,3.4507,3.4557,3.4613,3.4668,3.4699,3.4745,3.4792,3.4862,3.4906,3.4991,3.5058,3.5125,3.5159,3.5169,3.5173,3.5185,3.5178,3.5162,3.517,3.5062,3.5169,3.5169,3.5168,3.5168,3.5168,3.4409,3.4456,3.4519,3.4587,3.4633,3.4684,3.4733,3.4773,3.4832,3.4907,3.4925,3.4997,3.5054,3.5145,3.5181,3.5237,3.523,3.5248,3.5253,3.5256,3.5257,3.5153,3.5249,3.5249,3.5249,3.5249,3.5249,0,3.4493,3.4534,3.4597,3.4674,3.4727,3.4734,3.4795,3.4838,3.4903,3.4956,3.5012,3.5091,3.5156,3.5204,3.527,3.5305,3.5311,3.5321,3.5318,3.5326,3.526,3.5243,3.5315,3.5315,3.5315,3.5315,3.5315,3.5315,3.4543,3.4623,3.4649,3.4751,3.4791,3.4865,3.4899,3.4945,3.4988,3.5076,3.5131,3.5163,3.5214,3.5284,3.5343,3.5355,3.5378,3.5387,3.54,3.5338,3.533,3.5324,3.5307,3.5392,3.5392,3.5461,3.5461,3.5462]}]]